[[{"header":{"parameterUnit":"m.s-1","parameterCategory":1,"la1":30.2991,"la2":30.254,"lo1":-89.0895,"lo2":-89.0444,"dy":0.0017,"dx":0.0017,"nx":28,"ny":28,"refTime":"2023-08-04T03:00:00:Z","depth":0,"parameterNumber":2,"parameterNumberName":"U-component_of_WINDS"},"data":[0,0,0,0,0,0,0,0,0,0,0,0,0,0,0,0,0,0,0,0,0,0,0,0,0,0,0,0,0,0,0,0,0,0,0,0,0,0,0,0,0,0,0,0,0,0,0,0,0,0,0,0,0,0,0,0,0,0,0.8342,0.8342,0,0.8398,0.8399,0.84,0.839,0.8389,0.8388,0.8387,0.8443,0.8446,0.8448,0,0,0,0,0,0,0,0,0,0,0,0,0,0.8222,0.8224,0.8342,0.8342,0.8343,0.8398,0.8399,0.84,0.839,0.8389,0.8388,0.8387,0.8443,0.8445,0.8448,0,0,0,0,0,0,0,0,0,0,0,0,0,0.8276,0.8225,0.8341,0.8345,0.8346,0.8398,0.8399,0.84,0.839,0.8389,0.8387,0.8386,0.8442,0.8445,0.8449,0.8501,0,0,0.846,0.8461,0,0,0,0,0,0,0,0,0.8273,0.828,0.8344,0.8345,0.8346,0.8386,0.8378,0.8434,0.8391,0.8373,0.8387,0.8385,0.8425,0.843,0.8444,0.8503,0.8506,0.846,0.8462,0.8464,0.8465,0,0,0,0,0,0,0,0.8269,0.8278,0.8364,0.8345,0.8346,0.8343,0.8349,0.8388,0.8407,0.8375,0.8374,0.8381,0.8425,0.844,0.8445,0.8506,0.846,0.8463,0.8465,0.8467,0.861,0.8611,0,0,0,0,0,0,0.8265,0.8275,0.8362,0.8366,0.8305,0.8346,0.8353,0.8374,0.8406,0.841,0.8382,0.8381,0.8435,0.8441,0.8447,0.8509,0.8464,0.8467,0.8469,0.8608,0.861,0.8612,0,0,0,0,0,0,0.8262,0.8273,0.836,0.832,0.8331,0.835,0.8374,0.8376,0.8391,0.8412,0.8415,0.8394,0.8434,0.8442,0.8487,0.8511,0.8469,0.8472,0.8606,0.8609,0.8611,0.8634,0,0,0,0,0,0,0.8259,0.8272,0.8292,0.8321,0.8333,0.84,0.8375,0.8378,0.8398,0.8396,0.8424,0.8427,0.8433,0.8482,0.8491,0.8515,0.8475,0.8604,0.8607,0.861,0.8631,0.8637,0.8641,0,0,0,0,0,0.8255,0.8296,0.8293,0.8304,0.8359,0.8401,0.8408,0.8415,0.84,0.842,0.8433,0.8427,0.8507,0.8486,0.8496,0.8522,0.8603,0.8606,0.861,0.8628,0.8635,0.8641,0,0,0,0,0,0,0.827,0.83,0.8297,0.835,0.8373,0.84,0.8425,0.8422,0.845,0.8447,0.8453,0.846,0.8505,0.8518,0.8495,0.8573,0.8552,0.8558,0.8563,0.857,0.8575,0.8571,0.8478,0,0,0,0,0,0.8279,0.8312,0.8336,0.838,0.8392,0.8407,0.8425,0.8428,0.8452,0.8462,0.8479,0.8502,0.8532,0.8552,0.8581,0.8633,0.8638,0.8655,0.866,0.8665,0.8669,0.8696,0.8704,0.8624,0.8624,0.8624,0,0,0.8299,0.832,0.834,0.8383,0.8402,0.8434,0.8415,0.845,0.8474,0.8467,0.8511,0.8524,0.855,0.8598,0.862,0.861,0.8693,0.8669,0.8673,0.8675,0.8701,0.8709,0.8715,0.8626,0.8626,0.8625,0,0,0.8352,0.8371,0.8409,0.8428,0.8456,0.8466,0.8475,0.8502,0.851,0.8554,0.855,0.8577,0.863,0.8648,0.8664,0.8723,0.8718,0.8732,0.876,0.8786,0.8792,0.8798,0.8818,0.8825,0.8737,0.8737,0.8737,0,0.8372,0.8422,0.8429,0.8465,0.8483,0.8479,0.8517,0.8535,0.8571,0.8584,0.8572,0.8637,0.8654,0.8706,0.8721,0.8734,0.8744,0.8729,0.8791,0.8797,0.8802,0.8821,0.8829,0.8739,0.8739,0.8738,0.8738,0,0.8445,0.848,0.8507,0.8542,0.8564,0.8601,0.8612,0.8634,0.8635,0.8645,0.8689,0.871,0.8742,0.8755,0.8756,0.8807,0.88,0.879,0.8769,0.8811,0.8829,0.8836,0.8741,0.874,0.874,0.874,0,0,0.8509,0.8548,0.8558,0.8573,0.8604,0.863,0.8666,0.8698,0.8716,0.8741,0.877,0.8814,0.8805,0.8823,0.8826,0.8849,0.8893,0.8836,0.8837,0.8845,0.8948,0.8955,0.8963,0.889,0.8891,0.8892,0.8946,0,0.8563,0.8628,0.8635,0.8692,0.8723,0.8719,0.875,0.8771,0.8782,0.8809,0.882,0.8851,0.8837,0.8848,0.887,0.8883,0.8914,0.8879,0.8916,0.8917,0.8909,0.8973,0.898,0.903,0.8953,0.8954,0.8955,0,0.8636,0.8663,0.8723,0.8749,0.8762,0.879,0.882,0.8846,0.887,0.8876,0.8896,0.8896,0.8932,0.891,0.8958,0.8934,0.895,0.8958,0.896,0.8963,0.8938,0.8977,0.9046,0.9053,0.8966,0.8965,0.8965,0,0.8675,0.8726,0.8769,0.8783,0.8814,0.8833,0.8847,0.887,0.8888,0.8914,0.8926,0.8955,0.8971,0.8993,0.9001,0.8984,0.9048,0.9027,0.9053,0.9053,0.9066,0.9065,0.9138,0.9078,0.9078,0.9078,0.9077,0,0.8734,0.8771,0.8787,0.8813,0.8853,0.8861,0.89,0.8913,0.8933,0.896,0.8959,0.8984,0.8993,0.9019,0.9025,0.9064,0.9071,0.9076,0.9077,0.9076,0.9075,0.9085,0.9082,0.908,0.9079,0.9079,0.9078,0,0.8784,0.8797,0.8842,0.8868,0.8876,0.8904,0.8926,0.895,0.896,0.8995,0.9003,0.9019,0.905,0.906,0.9097,0.9101,0.9146,0.9144,0.9138,0.9138,0.9162,0.916,0.9244,0.9255,0.9188,0.9189,0.9189,0,0.8821,0.8849,0.8878,0.8897,0.8912,0.8942,0.8961,0.8969,0.8989,0.9018,0.9038,0.907,0.9095,0.9145,0.9158,0.9187,0.9185,0.9213,0.9189,0.9187,0.9184,0.9182,0.9184,0.9217,0.9217,0.9218,0.9218,0,0.8884,0.8889,0.8918,0.8948,0.8971,0.8995,0.9018,0.9033,0.9044,0.9067,0.9099,0.9119,0.9157,0.9187,0.9216,0.9229,0.9225,0.9226,0.9233,0.9232,0.9226,0.9228,0.9149,0.9224,0.9223,0.9223,0.9222,0.9222,0.8928,0.8953,0.8977,0.9008,0.9027,0.9048,0.9072,0.9085,0.9113,0.9145,0.9148,0.9182,0.9204,0.9243,0.9257,0.9283,0.9275,0.9286,0.9288,0.9291,0.9292,0.9223,0.9288,0.9288,0.9288,0.9288,0.9288,0,0.8991,0.9006,0.9035,0.9068,0.9092,0.9088,0.9113,0.9133,0.9164,0.9185,0.921,0.9246,0.9275,0.9291,0.932,0.9338,0.9337,0.9345,0.9343,0.9346,0.9298,0.9289,0.9345,0.9345,0.9345,0.9345,0.9345,0.9345,0.9026,0.9067,0.9074,0.9124,0.9139,0.9173,0.9188,0.9207,0.9224,0.9265,0.929,0.93,0.9319,0.9349,0.9375,0.9379,0.9389,0.9398,0.9401,0.9356,0.935,0.9344,0.9335,0.9401,0.9401,0.9446,0.9447,0.9447]},{"header":{"parameterUnit":"m.s-1","parameterCategory":1,"la1":30.2991,"la2":30.254,"lo1":-89.0895,"lo2":-89.0444,"dy":0.0017,"dx":0.0017,"nx":28,"ny":28,"refTime":"2023-08-04T03:00:00:Z","depth":0,"parameterNumber":3,"parameterNumberName":"V-component_of_WINDS"},"data":[0,0,0,0,0,0,0,0,0,0,0,0,0,0,0,0,0,0,0,0,0,0,0,0,0,0,0,0,0,0,0,0,0,0,0,0,0,0,0,0,0,0,0,0,0,0,0,0,0,0,0,0,0,0,0,0,0,0,5.3712,5.3712,0,5.3677,5.3677,5.3676,5.3659,5.3659,5.3659,5.3659,5.3618,5.3617,5.3616,0,0,0,0,0,0,0,0,0,0,0,0,0,5.3759,5.3758,5.3712,5.3712,5.3711,5.3677,5.3677,5.3676,5.3659,5.3659,5.3659,5.3659,5.3619,5.3617,5.3616,0,0,0,0,0,0,0,0,0,0,0,0,0,5.3733,5.3758,5.3712,5.3699,5.3697,5.3677,5.3677,5.3676,5.3659,5.3659,5.3659,5.3659,5.3619,5.3617,5.3616,5.3605,0,0,5.3611,5.361,0,0,0,0,0,0,0,0,5.3734,5.3731,5.3701,5.37,5.3698,5.3673,5.3678,5.3652,5.3659,5.3673,5.3659,5.3659,5.3636,5.3633,5.3626,5.3603,5.3601,5.361,5.3609,5.3609,5.3608,0,0,0,0,0,0,0,5.3736,5.3732,5.3698,5.3701,5.3699,5.3693,5.3689,5.3673,5.3655,5.3672,5.3671,5.3667,5.3635,5.3628,5.3625,5.3601,5.3611,5.3609,5.3608,5.3607,5.3566,5.3566,0,0,0,0,0,0,5.3741,5.3734,5.3699,5.3697,5.3717,5.3692,5.3688,5.3681,5.3655,5.3651,5.3667,5.3667,5.3631,5.3627,5.3623,5.3609,5.3609,5.3607,5.3606,5.3566,5.3566,5.3566,0,0,0,0,0,0,5.3742,5.3738,5.37,5.3715,5.371,5.3691,5.3683,5.368,5.3673,5.3651,5.3647,5.3664,5.363,5.3626,5.361,5.3607,5.3606,5.3605,5.3566,5.3566,5.3566,5.358,0,0,0,0,0,0,5.3743,5.3738,5.3735,5.3715,5.3709,5.3689,5.3683,5.3679,5.3671,5.3669,5.3647,5.3643,5.363,5.3612,5.3608,5.3605,5.3604,5.3566,5.3566,5.3566,5.3579,5.358,5.3581,0,0,0,0,0,5.3745,5.3739,5.3735,5.3731,5.3705,5.3689,5.3685,5.3672,5.367,5.3666,5.3653,5.3644,5.3608,5.3611,5.3606,5.3602,5.3566,5.3566,5.3566,5.3579,5.358,5.3581,0,0,0,0,0,0,5.3758,5.3736,5.3731,5.372,5.3707,5.3686,5.3681,5.3674,5.3659,5.3658,5.3641,5.3636,5.3621,5.361,5.3613,5.359,5.3586,5.3585,5.3598,5.3599,5.3599,5.3602,5.3602,0,0,0,0,0,5.3759,5.375,5.3731,5.3722,5.3716,5.37,5.3692,5.3683,5.3668,5.3662,5.3647,5.3631,5.3616,5.3607,5.3592,5.3578,5.3572,5.3572,5.3573,5.3574,5.3573,5.3564,5.3564,5.3565,5.3565,5.3565,0,0,5.3762,5.3749,5.3744,5.3724,5.3713,5.3702,5.3695,5.3683,5.3675,5.3659,5.3644,5.3632,5.3613,5.3598,5.3591,5.3588,5.3571,5.3573,5.3574,5.3573,5.3563,5.3563,5.3563,5.3565,5.3565,5.3565,0,0,5.3762,5.3752,5.3743,5.3733,5.3716,5.3705,5.3703,5.3684,5.3677,5.3661,5.365,5.3638,5.3613,5.36,5.359,5.3585,5.3576,5.358,5.3583,5.3575,5.3575,5.3574,5.3572,5.3572,5.3579,5.3579,5.3579,0,5.3767,5.3752,5.3739,5.3729,5.372,5.3708,5.3699,5.3688,5.3667,5.366,5.3658,5.3627,5.3613,5.3595,5.3594,5.3586,5.3582,5.3583,5.3576,5.3576,5.3575,5.3573,5.3572,5.358,5.358,5.358,5.358,0,5.3759,5.3748,5.3743,5.3725,5.3715,5.3705,5.369,5.3682,5.3674,5.3663,5.3646,5.363,5.3611,5.3606,5.3597,5.3586,5.3585,5.358,5.3576,5.3576,5.3573,5.3572,5.3581,5.3581,5.358,5.358,0,0,5.3765,5.3741,5.374,5.3731,5.3712,5.3703,5.3692,5.3676,5.3668,5.3654,5.3643,5.3623,5.3618,5.3607,5.3596,5.3589,5.3585,5.3584,5.3583,5.3585,5.3571,5.3575,5.3575,5.3579,5.3579,5.3579,5.3573,0,5.3762,5.3744,5.3733,5.3718,5.3707,5.3695,5.3685,5.3672,5.3661,5.3649,5.3636,5.3622,5.3617,5.361,5.3602,5.3587,5.3582,5.3588,5.3568,5.3567,5.3573,5.3573,5.3578,5.3573,5.3572,5.3571,5.3571,0,5.3756,5.3744,5.3729,5.3712,5.3707,5.3698,5.3682,5.3672,5.3655,5.3648,5.3636,5.3625,5.3611,5.3609,5.3588,5.3592,5.3583,5.3575,5.3574,5.3572,5.3569,5.357,5.3571,5.357,5.357,5.357,5.357,0,5.3763,5.3742,5.3731,5.3724,5.3703,5.3697,5.3688,5.3672,5.3663,5.3648,5.3642,5.3625,5.3616,5.3602,5.3587,5.3587,5.3568,5.3564,5.356,5.3561,5.3557,5.3557,5.3555,5.3551,5.3551,5.3551,5.3551,0,5.376,5.3751,5.3733,5.3726,5.3716,5.3702,5.3691,5.368,5.3666,5.3656,5.3643,5.3633,5.3614,5.3601,5.3588,5.3573,5.3569,5.3561,5.3558,5.3562,5.3563,5.3556,5.3556,5.3551,5.3551,5.3551,5.3551,0,5.3765,5.3753,5.374,5.3722,5.3717,5.371,5.3693,5.3685,5.3674,5.366,5.3656,5.3638,5.3622,5.3605,5.3583,5.3574,5.3559,5.3555,5.3566,5.3564,5.3561,5.3561,5.3554,5.3552,5.355,5.355,5.355,0,5.3765,5.3758,5.374,5.3733,5.3724,5.3713,5.3704,5.369,5.3681,5.3662,5.3655,5.3639,5.3625,5.3599,5.3583,5.3565,5.356,5.3559,5.3558,5.3562,5.356,5.3561,5.356,5.356,5.356,5.356,5.356,0,5.3765,5.376,5.3748,5.3735,5.3725,5.3713,5.3701,5.3695,5.3678,5.3668,5.3653,5.3642,5.362,5.3604,5.3584,5.3572,5.3563,5.3561,5.3559,5.3563,5.3569,5.3566,5.3567,5.3561,5.3561,5.3561,5.3561,5.3561,5.3767,5.3761,5.3747,5.3734,5.3724,5.3713,5.3704,5.3693,5.368,5.3663,5.3654,5.3639,5.3621,5.3595,5.3583,5.357,5.3567,5.3564,5.3563,5.3563,5.3564,5.3572,5.3566,5.3566,5.3566,5.3566,5.3566,0,5.3767,5.3757,5.3746,5.373,5.372,5.3714,5.37,5.3691,5.3678,5.3664,5.3651,5.3633,5.3617,5.3599,5.3581,5.3574,5.3569,5.3569,5.357,5.3567,5.3568,5.3571,5.3574,5.3574,5.3574,5.3574,5.3574,5.3574,5.3765,5.3754,5.3747,5.3729,5.3719,5.3706,5.3698,5.3687,5.3676,5.3657,5.3644,5.3633,5.3617,5.3598,5.3582,5.3577,5.3571,5.3573,5.3567,5.3568,5.3567,5.3566,5.357,5.3572,5.3572,5.3567,5.3567,5.3567]}]]